Weather History for Immokalee Regional Airport [I, FL

Change the Weather History Date:

Friday, May 16, 2014

  Actual Average (KFMY) Record (KFMY)
Temperature  
Mean Temperature 72 °F 79 °F  
Max Temperature 86 °F 90 °F 96 °F (1989)
Min Temperature 57 °F 69 °F 52 °F (1917)
Degree Days  
Heating Degree Days 0 0  
Month to date heating degree days 0  
Since 1 July heating degree days 287  
Cooling Degree Days 6 14  
Month to date cooling degree days 203  
Year to date cooling degree days 833  
Growing Degree Days 22 (Base 50)    
Moisture  
Dew Point 56 °F    
Average Humidity 56    
Maximum Humidity 100    
Minimum Humidity 25    
Precipitation  
Precipitation 0.01 in 0.06 in 1.74 in (1911)
Month to date precipitation 0.96  
Year to date precipitation 10.11  
Sea Level Pressure  
Sea Level Pressure 30.04 in    
Wind  
Wind Speed 5 mph (North)    
Max Wind Speed 18 mph    
Max Gust Speed 22 mph    
Visibility 8 miles    
Events      
T = Trace of Precipitation, MM = Missing Value Source: NWS Daily Summary

Daily Weather History Graph

Daily Weather History Graph

Search for Another Location

Airport:

Trip Planner

Search our weather history database for the weather conditions in past years. The results will help you decide how hot, cold, wet, or windy it might be!

Date:

Astronomy

May. 16, 2014 Rise Set
Actual Time 6:38 AM EDT 8:06 PM EDT
Civil Twilight 6:13 AM EDT 8:31 PM EDT
Nautical Twilight 5:43 AM EDT 9:01 PM EDT
Astronomical Twilight 5:11 AM EDT 9:32 PM EDT
Moon 10:11 PM EDT (5/16) 8:18 AM EDT (5/16)
Length of Visible Light 14h 18m
Length of Day
13h 27m
Waning Gibbous, 95% of the Moon is Illuminated
May 16
Waning Gibbous
May 21
Last Quarter
May 28
New
Jun 5
First Quarter
Jun 13
Full

Hourly Weather History & Observations

Time (EDT) Temp. Heat Index Dew Point Humidity Pressure Visibility Wind Dir Wind Speed Gust Speed Precip Events Conditions
12:15 AM 73.4 °F - - N/A% 30.01 in 8.0 mi Calm Calm - 0.00 in   Partly Cloudy
12:35 AM 73.4 °F - - N/A% 30.01 in 8.0 mi Calm Calm - 0.00 in   Clear
1:15 AM 73.4 °F - - N/A% 30.00 in 9.0 mi Calm Calm - 0.00 in   Clear
1:35 AM 73.4 °F - - N/A% 30.00 in 9.0 mi West 4.6 mph - 0.00 in   Clear
1:55 AM 73.4 °F - - N/A% 30.00 in 8.0 mi WNW 3.5 mph - 0.00 in   Clear
2:15 AM 73.4 °F - - N/A% 30.00 in 9.0 mi Calm Calm - 0.00 in   Mostly Cloudy
2:35 AM 73.4 °F - - N/A% 30.00 in 8.0 mi WNW 4.6 mph - 0.00 in   Overcast
2:55 AM 71.6 °F - - N/A% 29.99 in 8.0 mi NW 4.6 mph - 0.00 in   Overcast
3:15 AM 71.6 °F - - N/A% 29.99 in 7.0 mi NW 5.8 mph - 0.00 in   Overcast
3:35 AM 71.6 °F - - N/A% 29.99 in 6.0 mi NW 5.8 mph - 0.00 in   Scattered Clouds
3:55 AM 71.6 °F - - N/A% 29.99 in 5.0 mi Calm Calm - 0.00 in   Clear
4:15 AM 71.6 °F - - N/A% 29.99 in 5.0 mi Calm Calm - 0.00 in   Clear
4:35 AM 69.8 °F - - N/A% 29.99 in 5.0 mi NW 3.5 mph - 0.00 in   Partly Cloudy
4:55 AM 69.8 °F - - N/A% 29.99 in 7.0 mi Calm Calm - 0.00 in   Partly Cloudy
5:15 AM 69.8 °F - - N/A% 29.99 in 5.0 mi Calm Calm - 0.00 in   Clear
5:35 AM 69.8 °F - - N/A% 30.00 in 6.0 mi NNW 3.5 mph - 0.01 in   Clear
5:55 AM 68.0 °F - - N/A% 30.00 in 6.0 mi Calm Calm - 0.01 in   Clear
6:15 AM 68.0 °F - - N/A% 30.01 in 6.0 mi Calm Calm - 0.00 in   Clear
6:35 AM 66.2 °F - - N/A% 30.01 in 5.0 mi Calm Calm - 0.00 in   Clear
6:55 AM 66.2 °F - - N/A% 30.02 in 4.0 mi Calm Calm - 0.00 in   Clear
7:15 AM 66.2 °F - - N/A% 30.02 in 3.0 mi Calm Calm - 0.00 in   Scattered Clouds
7:35 AM 68.0 °F - - N/A% 30.03 in 5.0 mi Calm Calm - 0.00 in   Mostly Cloudy
7:55 AM 69.8 °F - - N/A% 30.03 in 5.0 mi Calm Calm - 0.00 in   Mostly Cloudy
8:15 AM 71.6 °F - 71.6 °F 100% 30.04 in 5.0 mi NW 5.8 mph - 0.00 in   Mostly Cloudy
8:35 AM 73.4 °F - 73.4 °F 100% 30.04 in 7.0 mi NNW 6.9 mph - 0.00 in   Scattered Clouds
8:55 AM 73.4 °F - 73.4 °F 100% 30.05 in 6.0 mi NNW 10.4 mph 18.4 mph 0.00 in   Scattered Clouds
9:15 AM 71.6 °F - 71.6 °F 100% 30.05 in 7.0 mi NNW 9.2 mph 16.1 mph 0.00 in   Mostly Cloudy
9:35 AM 73.4 °F - 73.4 °F 100% 30.05 in 6.0 mi NNW 10.4 mph 19.6 mph 0.00 in   Overcast
9:55 AM 73.4 °F - 73.4 °F 100% 30.06 in 7.0 mi NNW 12.7 mph 19.6 mph 0.00 in   Overcast
10:15 AM 71.6 °F - 66.2 °F 83% 30.06 in 7.0 mi NNW 10.4 mph 18.4 mph 0.00 in   Overcast
10:35 AM 73.4 °F - 66.2 °F 78% 30.07 in 9.0 mi NNW 11.5 mph 17.3 mph 0.00 in   Mostly Cloudy
10:55 AM 77.0 °F - 64.4 °F 65% 30.07 in 6.0 mi NNW 9.2 mph 18.4 mph 0.00 in   Partly Cloudy
11:15 AM 78.8 °F - 64.4 °F 61% 30.07 in 9.0 mi NNW 10.4 mph 16.1 mph 0.00 in   Clear
11:35 AM 80.6 °F 82.3 °F 64.4 °F 58% 30.07 in 8.0 mi North 12.7 mph 18.4 mph 0.00 in   Clear
11:55 AM 80.6 °F 82.3 °F 64.4 °F 58% 30.07 in 8.0 mi NNW 9.2 mph 20.7 mph 0.00 in   Clear
12:35 PM 82.4 °F 83.4 °F 62.6 °F 51% 30.07 in 8.0 mi NNW 9.2 mph 16.1 mph 0.00 in   Clear
12:55 PM 80.6 °F 81.8 °F 62.6 °F 54% 30.07 in 6.0 mi North 6.9 mph 16.1 mph 0.00 in   Clear
1:15 PM 80.6 °F 81.8 °F 62.6 °F 54% 30.07 in 8.0 mi North 11.5 mph 16.1 mph 0.00 in   Clear
1:35 PM 80.6 °F 81.8 °F 62.6 °F 54% 30.07 in 8.0 mi NNW 8.1 mph 17.3 mph 0.00 in   Clear
1:55 PM 82.4 °F 83.4 °F 62.6 °F 51% 30.07 in 10.0 mi NNW 10.4 mph 16.1 mph 0.00 in   Clear
2:15 PM 82.4 °F 82.9 °F 60.8 °F 48% 30.06 in 7.0 mi NNE 11.5 mph 17.3 mph 0.00 in   Partly Cloudy
2:35 PM 82.4 °F 81.7 °F 55.4 °F 39% 30.06 in 8.0 mi North 12.7 mph 19.6 mph 0.00 in   Partly Cloudy
2:55 PM 82.4 °F - 50.0 °F 32% 30.06 in 8.0 mi North 13.8 mph 20.7 mph 0.00 in   Clear
3:15 PM 84.2 °F - 46.4 °F 27% 30.05 in 8.0 mi North 13.8 mph 20.7 mph 0.00 in   Partly Cloudy
3:35 PM 84.2 °F - 48.2 °F 29% 30.05 in 9.0 mi North 15.0 mph 20.7 mph 0.00 in   Clear
3:55 PM 84.2 °F - 48.2 °F 29% 30.04 in 8.0 mi North 12.7 mph 21.9 mph 0.00 in   Clear
4:15 PM 86.0 °F - 46.4 °F 25% 30.04 in 8.0 mi North 13.8 mph 19.6 mph 0.00 in   Clear
4:35 PM 84.2 °F - 48.2 °F 29% 30.03 in 8.0 mi North 12.7 mph - 0.00 in   Clear
4:55 PM 86.0 °F - 46.4 °F 25% 30.03 in 9.0 mi North 10.4 mph 17.3 mph 0.00 in   Clear
5:15 PM 84.2 °F - 44.6 °F 25% 30.03 in 8.0 mi NNE 12.7 mph 19.6 mph 0.00 in   Clear
5:35 PM 84.2 °F - 46.4 °F 27% 30.03 in 9.0 mi NE 15.0 mph 20.7 mph 0.00 in   Clear
5:55 PM 82.4 °F - 44.6 °F 26% 30.03 in 9.0 mi NE 17.3 mph - 0.00 in   Clear
6:15 PM 82.4 °F - 44.6 °F 26% 30.03 in 9.0 mi NE 16.1 mph 19.6 mph 0.00 in   Clear
6:35 PM 82.4 °F - 42.8 °F 25% 30.03 in 8.0 mi NNE 18.4 mph 21.9 mph 0.00 in   Clear
6:55 PM 80.6 °F - 44.6 °F 28% 30.04 in 8.0 mi NE 11.5 mph - 0.00 in   Clear
7:15 PM 80.6 °F - 42.8 °F 26% 30.05 in 7.0 mi NNE 12.7 mph 18.4 mph 0.00 in   Clear
7:35 PM 78.8 °F - 42.8 °F 28% 30.05 in 9.0 mi NNE 13.8 mph - 0.00 in   Clear
7:55 PM 75.2 °F - 44.6 °F 34% 30.06 in 7.0 mi North 8.1 mph - 0.00 in   Clear
8:15 PM 71.6 °F - 46.4 °F 41% 30.06 in 9.0 mi North 5.8 mph - 0.00 in   Clear
8:35 PM 69.8 °F - 46.4 °F 43% 30.06 in 9.0 mi North 6.9 mph - 0.00 in   Clear
9:15 PM 66.2 °F - 51.8 °F 60% 30.09 in 10.0 mi NE 4.6 mph - 0.00 in   Clear
9:35 PM 64.4 °F - 53.6 °F 68% 30.09 in 10.0 mi Calm Calm - 0.00 in   Clear
9:55 PM 64.4 °F - 53.6 °F 68% 30.11 in 9.0 mi Calm Calm - 0.00 in   Clear
10:15 PM 62.6 °F - 55.4 °F 77% 30.11 in 10.0 mi Calm Calm - 0.00 in   Clear
10:55 PM 60.8 °F - 57.2 °F 88% 30.12 in 10.0 mi Calm Calm - 0.00 in   Clear
11:15 PM 59.0 °F - 59.0 °F 100% 30.13 in 8.0 mi Calm Calm - 0.00 in   Clear
11:35 PM 57.2 °F - 57.2 °F 100% 30.13 in 9.0 mi Calm Calm - 0.00 in   Clear
11:55 PM 57.2 °F - 57.2 °F 100% 30.12 in 9.0 mi Calm Calm - 0.00 in   Clear